Volver al catálogo

MR-1

ActivoCienciaPO
NORAD 67557·PAYLOAD·🇪🇸 Spain

Lanzado Jan 22, 2026 desde Rocket Lab Launch Complex 1

Loading…

Próximos Pases (próximas 24 horas)

TLE

ActualizadoSource: Space-Track

Época: Sep 13, 2026, 18:00 UTC

1 67557U 26015B   26256.75026286  .00000038  00000-0  39664-4 0  9994
2 67557  88.9940 259.5506 0003870 150.1728 209.9646 13.52674683 31683

Sigue MR-1 en tiempo real con AllMySat

Download on the App Store